Daggett-Barstow, CA

2:48 PM PST on November 23, 2017 (GMT -0800)
Barstow-Daggett

Weather History for KDAG - March, 2014

Change the Weather History Date:

Sunday, March 30, 2014

  Actual Average Record
Temperature  
Mean Temperature 60 °F 61 °F  
Max Temperature 70 °F 75 °F 92 °F (2015)
Min Temperature 51 °F 47 °F 34 °F (1998)
Degree Days  
Heating Degree Days 4    
Cooling Degree Days 0    
Growing Degree Days 10 (Base 50)    
Moisture  
Dew Point 27 °F    
Average Humidity 32    
Maximum Humidity 74    
Minimum Humidity 13    
Precipitation  
Precipitation 0.01 in 0.01 in 0.14 in (1992)
Month to date precipitation 0.49  
Year to date precipitation 1.75  
Sea Level Pressure  
Sea Level Pressure 29.88 in    
Wind  
Wind Speed 24 mph (West)    
Max Wind Speed 38 mph    
Max Gust Speed 47 mph    
Visibility 10 miles    
Events Rain    
T = Trace of Precipitation, MM = Missing Value Source: NWS Daily Summary

Daily Weather History Graph

Daily Weather History Graph

Search for Another Location

Airport or City:

Trip Planner

Search our weather history database for the weather conditions in past years. The results will help you decide how hot, cold, wet, or windy it might be!

Date:

Astronomy

Mar. 30, 2014 Rise Set
Actual Time 6:36 AM PDT 7:06 PM PDT
Civil Twilight 6:11 AM PDT 7:32 PM PDT
Nautical Twilight 5:41 AM PDT 8:02 PM PDT
Astronomical Twilight 5:11 AM PDT 8:32 PM PDT
Moon 6:25 AM PDT (3/30) 7:23 PM PDT (3/30)
Length of Visible Light 13h 20m
Length of Day
12h 30m
New Moon, 0% of the Moon is Illuminated
Mar 30
New Moon
Apr 7
First Quarter
Apr 15
Full
Apr 22
Last Quarter
Apr 28
New

Hourly Weather History & Observations

Time (PDT) Temp. Dew Point Humidity Pressure Visibility Wind Dir Wind Speed Gust Speed Precip Events Conditions
12:50 AM 68.0 °F 30.0 °F 24% 29.79 in 10.0 mi SW 18.4 mph - N/A   Clear
1:50 AM 66.0 °F 26.1 °F 22% 29.77 in 10.0 mi SSW 23.0 mph 32.2 mph N/A   Clear
2:34 AM 62.1 °F 28.0 °F 28% 29.85 in 10.0 mi WNW 21.9 mph 26.5 mph N/A   Clear
2:50 AM 59.0 °F 32.0 °F 36% 29.78 in 10.0 mi WNW 19.6 mph 26.5 mph N/A   Clear
3:50 AM 57.9 °F 33.1 °F 39% 29.79 in 10.0 mi West 21.9 mph 34.5 mph N/A   Clear
4:50 AM 57.0 °F 37.0 °F 47% 29.81 in 10.0 mi SW 31.1 mph 42.6 mph N/A   Clear
5:50 AM 55.0 °F 39.0 °F 55% 29.83 in 10.0 mi West 28.8 mph 35.7 mph N/A   Clear
6:50 AM 51.1 °F 43.0 °F 74% 29.87 in 9.0 mi WSW 28.8 mph 39.1 mph 0.00 in Rain Light Rain
7:50 AM 53.1 °F 39.0 °F 59% 29.88 in 10.0 mi WSW 32.2 mph 43.7 mph 0.01 in   Clear
8:50 AM 55.0 °F 36.0 °F 49% 29.92 in 10.0 mi West 32.2 mph 39.1 mph N/A   Clear
9:50 AM 57.9 °F 33.1 °F 39% 29.92 in 10.0 mi West 28.8 mph 38.0 mph N/A   Clear
10:50 AM 62.1 °F 30.0 °F 30% 29.91 in 10.0 mi West 35.7 mph 47.2 mph N/A   Clear
11:50 AM 63.0 °F 26.1 °F 25% 29.94 in 10.0 mi West 28.8 mph 44.9 mph N/A   Clear
12:50 PM 66.0 °F 23.0 °F 20% 29.90 in 10.0 mi West 38.0 mph 43.7 mph N/A   Clear
1:50 PM 68.0 °F 19.9 °F 16% 29.91 in 10.0 mi West 24.2 mph 34.5 mph N/A   Clear
2:50 PM 70.0 °F 19.9 °F 15% 29.89 in 10.0 mi West 24.2 mph 33.4 mph N/A   Clear
3:50 PM 69.1 °F 18.0 °F 14% 29.89 in 10.0 mi West 20.7 mph 32.2 mph N/A   Clear
4:50 PM 69.1 °F 17.1 °F 14% 29.88 in 10.0 mi West 21.9 mph 31.1 mph N/A   Clear
5:50 PM 66.9 °F 16.0 °F 14% 29.89 in 10.0 mi West 23.0 mph - N/A   Clear
6:50 PM 64.0 °F 12.0 °F 13% 29.90 in 10.0 mi West 21.9 mph - N/A   Clear
7:50 PM 61.0 °F 19.0 °F 20% 29.92 in 10.0 mi West 18.4 mph - N/A   Clear
8:50 PM 57.0 °F 27.0 °F 32% 29.94 in 10.0 mi West 18.4 mph - N/A   Clear
9:50 PM 55.0 °F 28.0 °F 35% 29.95 in 10.0 mi West 21.9 mph - N/A   Clear
10:50 PM 55.0 °F 26.1 °F 33% 29.95 in 10.0 mi WSW 20.7 mph - N/A   Clear
11:50 PM 52.0 °F 27.0 °F 38% 29.96 in 10.0 mi West 15.0 mph - N/A   Clear